This is the latest recevied weather packets stored in our database for station/object KG5WBN. If no packets are shown the sender has not sent any weather packets the latest 10 day(s).
| Time | Temp. | Humidity | Pressure | Rain* | Wind** | Luminosity | Snow |
|---|---|---|---|---|---|---|---|
| 1777566793 | 23.89° C | 86% | 1012.5 hPa | 1.78 mm | - | 38 W/m² | - |
| 1777566490 | 23.89° C | 82% | 1012.2 hPa | 1.27 mm | - | 40 W/m² | - |
| 1777566187 | 24.44° C | 82% | 1012.2 hPa | 0 mm | - | 44 W/m² | - |
| 1777565883 | 24.44° C | 80% | 1012.2 hPa | 0 mm | - | 53 W/m² | - |
| 1777565580 | 25° C | 80% | 1012.2 hPa | 0 mm | - | 64 W/m² | - |
| 1777565276 | 24.44° C | 80% | 1012.2 hPa | 0 mm | - | 71 W/m² | - |
| 1777564972 | 25° C | 80% | 1012.2 hPa | 0 mm | - | 72 W/m² | - |
| 1777564668 | 25° C | 80% | 1012.2 hPa | 0 mm | - | 62 W/m² | - |
| 1777564363 | 25° C | 79% | 1012.2 hPa | 0 mm | - | 61 W/m² | - |
| 1777564059 | 25° C | 80% | 1011.9 hPa | 0 mm | - | 72 W/m² | - |
| 1777563755 | 25° C | 79% | 1011.9 hPa | 0 mm | - | 71 W/m² | - |
| 1777563452 | 25° C | 79% | 1011.9 hPa | 0 mm | - | 73 W/m² | - |
| 1777563152 | 25° C | 79% | 1011.9 hPa | 0 mm | - | 74 W/m² | - |
| 1777562848 | 25° C | 79% | 1011.9 hPa | 0 mm | - | 77 W/m² | - |
| 1777562545 | 25° C | 80% | 1011.9 hPa | 0 mm | - | 93 W/m² | - |
| 1777562243 | 25° C | 80% | 1011.9 hPa | 0 mm | - | 89 W/m² | - |
| 1777561941 | 25° C | 82% | 1011.5 hPa | 0 mm | - | 87 W/m² | - |
| 1777561638 | 25° C | 81% | 1011.9 hPa | 0 mm | - | 73 W/m² | - |
| 1777561333 | 25° C | 78% | 1011.5 hPa | 0 mm | - | 58 W/m² | - |
| 1777561028 | 25° C | 77% | 1011.5 hPa | 0 mm | - | 55 W/m² | - |
| 1777560723 | 26.11° C | 76% | 1011.5 hPa | 0 mm | - | 44 W/m² | - |
| 1777560421 | 26.11° C | 74% | 1011.5 hPa | 0 mm | - | 77 W/m² | - |
| 1777560119 | 26.11° C | 75% | 1011.5 hPa | 0 mm | - | 77 W/m² | - |
| 1777559815 | 26.11° C | 76% | 1011.5 hPa | 0 mm | - | 80 W/m² | - |
| 1777559511 | 26.11° C | 76% | 1011.5 hPa | 0 mm | - | 75 W/m² | - |
* Rain latest hour (hover to see other rain measurements)
** Current wind speed in m/s (hover to see current wind gust speed)